Calgary Springbank,

10:43 PM MST on November 22, 2017 (GMT -0700)
Calgary Springbank

Weather History for CYBW - October, 2013

Change the Weather History Date:

Wednesday, October 30, 2013

  Actual Average Record
Temperature  
Mean Temperature 32 °F -  
Max Temperature 41 °F 34 °F 59 °F (2011)
Min Temperature 23 °F 14 °F -5 °F (2002)
Degree Days  
Heating Degree Days 33    
Moisture  
Dew Point 27 °F    
Average Humidity 77    
Maximum Humidity 86    
Minimum Humidity 61    
Precipitation  
Precipitation 0.00 in - - ()
Sea Level Pressure  
Sea Level Pressure 29.90 in    
Wind  
Wind Speed 6 mph ()    
Max Wind Speed 9 mph    
Max Gust Speed -    
Visibility 15.6 miles    
Events      
Averages and records for this station are not official NWS values.
T = Trace of Precipitation, MM = Missing Value Source: Averaged Metar Reports

Daily Weather History Graph

Daily Weather History Graph

Search for Another Location

Airport or City:

Trip Planner

Search our weather history database for the weather conditions in past years. The results will help you decide how hot, cold, wet, or windy it might be!

Date:

Astronomy

Oct. 30, 2013 Rise Set
Actual Time 8:27 AM MDT 6:14 PM MDT
Civil Twilight 7:52 AM MDT 6:48 PM MDT
Nautical Twilight 7:13 AM MDT 7:27 PM MDT
Astronomical Twilight 6:35 AM MDT 8:06 PM MDT
Moon 3:54 AM MDT (10/30) 4:23 PM MDT (10/30)
Length of Visible Light 10h 56m
Length of Day
9h 47m
Waning Crescent, 16% of the Moon is Illuminated
Oct 30
Waning Crescent
Nov 3
New
Nov 9
First Quarter
Nov 17
Full
Nov 25
Last Quarter

Hourly Weather History & Observations

Time (MDT) Temp. Windchill Dew Point Humidity Pressure Visibility Wind Dir Wind Speed Gust Speed Precip Events Conditions
5:00 AM 24.8 °F 15.3 °F 21.2 °F 86% 29.89 in 15.0 mi NW 9.2 mph - N/A   Clear
6:00 AM 25 °F - 22 °F 81% 29.91 in 15 mi NW 9.2 mph - -  
6:00 AM 24.8 °F 15.3 °F 21.2 °F 86% 29.91 in 15.0 mi WNW 9.2 mph - N/A   Clear
7:00 AM 26.6 °F 17.5 °F 21.2 °F 80% 29.93 in 15.0 mi NNW 9.2 mph - N/A   Clear
8:00 AM 26.6 °F 19.1 °F 23.0 °F 86% 29.94 in 20.0 mi NNW 6.9 mph - N/A   Partly Cloudy
9:00 AM 28.4 °F 21.2 °F 24.8 °F 86% 29.94 in 30.0 mi NNW 6.9 mph - N/A   Mostly Cloudy
10:00 AM 32.0 °F 25.6 °F 26.6 °F 80% 29.94 in 30.0 mi NNW 6.9 mph - N/A   Mostly Cloudy
11:00 AM 35.6 °F 30.7 °F 28.4 °F 75% 29.93 in 30.0 mi NW 5.8 mph - N/A   Mostly Cloudy
12:00 PM 38 °F - 29 °F 62% 29.92 in 28 mi NW 4.6 mph - -   Clear
12:00 PM 37.4 °F 33.8 °F 30.2 °F 75% 29.92 in 30.0 mi WNW 4.6 mph - N/A   Mostly Cloudy
1:00 PM 37.4 °F 32.1 °F 28.4 °F 70% 29.91 in 30.0 mi WNW 6.9 mph - N/A   Mostly Cloudy
2:00 PM 39.2 °F 34.2 °F 26.6 °F 61% 29.89 in 40.0 mi NNW 6.9 mph - N/A   Mostly Cloudy
3:00 PM 39.2 °F 35.9 °F 28.4 °F 65% 29.89 in 40.0 mi West 4.6 mph - N/A   Mostly Cloudy
4:00 PM 39.2 °F 35.9 °F 30.2 °F 70% 29.89 in 40.0 mi WNW 4.6 mph - N/A   Mostly Cloudy
5:00 PM 37.4 °F 32.8 °F 30.2 °F 75% 29.90 in 40.0 mi SSW 5.8 mph - N/A   Mostly Cloudy
5:50 PM 35.6 °F 29.2 °F 30.2 °F 81% 29.89 in 40.0 mi South 8.1 mph - N/A   Mostly Cloudy
6:00 PM 36 °F - 30 °F 72% 29.89 in 37 mi Calm Calm - -   Partly Cloudy
6:00 PM 35.6 °F 29.9 °F 30.2 °F 81% 29.89 in 40.0 mi South 6.9 mph - N/A   Mostly Cloudy
7:00 PM 35.6 °F 32.8 °F 28.4 °F 75% 29.88 in 30.0 mi South 3.5 mph - N/A   Mostly Cloudy
8:00 PM 30.2 °F 25.4 °F 26.6 °F 86% 29.89 in 15.0 mi West 4.6 mph - N/A   Partly Cloudy
9:00 PM 30.2 °F 22.6 °F 26.6 °F 86% 29.86 in 15.0 mi SW 8.1 mph - N/A   Partly Cloudy
10:00 PM 28.4 °F 22.2 °F 24.8 °F 86% 29.70 in 15.0 mi WSW 5.8 mph - N/A   Partly Cloudy